Yuma MCAS, AZ

6:04 AM MST on March 26, 2017 (GMT -0700)
Yuma Marine Corps Air Station

Weather History for KNYL - September, 2013

Change the Weather History Date:

Monday, September 9, 2013

  Actual Average Record
Temperature  
Mean Temperature 87 °F 91 °F  
Max Temperature 101 °F 104 °F 113 °F (1963)
Min Temperature 73 °F 79 °F 59 °F (1912)
Degree Days  
Heating Degree Days 0 0  
Month to date heating degree days 0 0  
Since 1 July heating degree days 0 0  
Cooling Degree Days 22 26  
Month to date cooling degree days 256 245  
Year to date cooling degree days 3954 3698  
Growing Degree Days 36 (Base 50)    
Moisture  
Dew Point 65 °F    
Average Humidity 61    
Maximum Humidity 87    
Minimum Humidity 35    
Precipitation  
Precipitation 0.34 in 0.01 in 1.44 in (2014)
Month to date precipitation 0.37 0.15  
Year to date precipitation 2.17 2.24  
Sea Level Pressure  
Sea Level Pressure 29.69 in    
Wind  
Wind Speed 9 mph (SE)    
Max Wind Speed 29 mph    
Max Gust Speed 33 mph    
Visibility 10 miles    
Events Rain , Thunderstorm    
T = Trace of Precipitation, MM = Missing Value Source: NWS Daily Summary

Daily Weather History Graph

Daily Weather History Graph

Search for Another Location

Airport or City:

Trip Planner

Search our weather history database for the weather conditions in past years. The results will help you decide how hot, cold, wet, or windy it might be!

Date:

Astronomy

Sep. 09, 2013 Rise Set
Actual Time 6:18 AM MST 6:52 PM MST
Civil Twilight 5:53 AM MST 7:16 PM MST
Nautical Twilight 5:24 AM MST 7:46 PM MST
Astronomical Twilight 4:54 AM MST 8:15 PM MST
Moon 10:27 AM MST (9/9) 9:29 PM MST (9/9)
Length of Visible Light 13h 23m
Length of Day
12h 33m
Waxing Crescent, 20% of the Moon is Illuminated
Sep 9
Waxing Crescent
Sep 12
First Quarter
Sep 19
Full
Sep 26
Last Quarter
Oct 4
New

Hourly Weather History & Observations

Time (MST) Temp. Heat Index Dew Point Humidity Pressure Visibility Wind Dir Wind Speed Gust Speed Precip Events Conditions
12:57 AM 82.0 °F 82.7 °F 61.0 °F 49% 29.71 in 10.0 mi ESE 3.5 mph - N/A   Partly Cloudy
1:57 AM 82.0 °F 82.7 °F 61.0 °F 49% 29.70 in 10.0 mi Calm Calm - N/A   Partly Cloudy
2:57 AM 82.0 °F 82.4 °F 60.1 °F 47% 29.69 in 10.0 mi NE 4.6 mph - N/A   Partly Cloudy
3:57 AM 82.0 °F 82.4 °F 60.1 °F 47% 29.69 in 10.0 mi NE 3.5 mph - N/A   Partly Cloudy
4:57 AM 81.0 °F 81.6 °F 60.1 °F 49% 29.70 in 10.0 mi North 5.8 mph - N/A   Scattered Clouds
5:57 AM 82.0 °F 82.4 °F 60.1 °F 47% 29.70 in 10.0 mi Calm Calm - N/A   Scattered Clouds
6:57 AM 81.0 °F 81.9 °F 62.1 °F 52% 29.71 in 10.0 mi ESE 5.8 mph - N/A   Scattered Clouds
7:57 AM 84.9 °F 85.9 °F 63.0 °F 48% 29.71 in 10.0 mi ESE 5.8 mph - N/A   Scattered Clouds
8:57 AM 88.0 °F 91.4 °F 68.0 °F 51% 29.73 in 10.0 mi South 9.2 mph - N/A   Scattered Clouds
9:57 AM 89.1 °F 95.0 °F 71.1 °F 55% 29.73 in 10.0 mi SSE 4.6 mph - N/A   Scattered Clouds
10:57 AM 91.0 °F 97.6 °F 71.1 °F 52% 29.72 in 10.0 mi Variable 6.9 mph - N/A   Scattered Clouds
11:57 AM 93.0 °F 100.1 °F 71.1 °F 49% 29.70 in 10.0 mi South 8.1 mph - N/A   Scattered Clouds
12:57 PM 93.9 °F 98.6 °F 68.0 °F 43% 29.68 in 10.0 mi SSW 10.4 mph 18.4 mph N/A   Scattered Clouds
1:57 PM 95.0 °F 100.7 °F 69.1 °F 43% 29.65 in 10.0 mi Variable 6.9 mph 17.3 mph N/A   Mostly Cloudy
2:57 PM 98.1 °F 102.4 °F 66.9 °F 36% 29.60 in 10.0 mi SSW 11.5 mph - N/A   Mostly Cloudy
3:57 PM 99.0 °F 103.5 °F 66.9 °F 35% 29.60 in 10.0 mi South 18.4 mph - N/A   Mostly Cloudy
4:57 PM 96.1 °F 98.8 °F 64.9 °F 36% 29.61 in 105.0 mi SE 17.3 mph - N/A   Widespread Dust
5:19 PM 89.1 °F 90.0 °F 63.0 °F 42% 29.64 in 5.0 mi East 24.2 mph 32.2 mph N/A   Widespread Dust
5:57 PM 89.1 °F 89.3 °F 62.1 °F 40% 29.64 in 10.0 mi East 20.7 mph - N/A   Mostly Cloudy
6:57 PM 84.2 °F 85.0 °F 62.6 °F 48% 29.65 in 10.0 mi ENE 17.3 mph 26.5 mph N/A Thunderstorm Thunderstorm
7:57 PM 75.0 °F - 69.1 °F 82% 29.70 in 4.0 mi ESE 23.0 mph - N/A Rain , Thunderstorm Thunderstorms and Rain
8:57 PM 75.0 °F - 68.0 °F 79% 29.74 in 10.0 mi SSW 8.1 mph - 0.06 in Rain , Thunderstorm Light Thunderstorms and Rain
9:57 PM 73.9 °F - 69.1 °F 85% 29.74 in 10.0 mi ESE 5.8 mph - 0.09 in Rain , Thunderstorm Light Thunderstorms and Rain
10:57 PM 73.0 °F - 69.1 °F 87% 29.72 in 10.0 mi South 13.8 mph - 0.05 in Rain Light Rain
11:57 PM 75.0 °F - 68.0 °F 79% 29.73 in 10.0 mi NNE 8.1 mph - 0.00 in   Mostly Cloudy